Jennings, LA

11:35 AM CDT on August 30, 2016 (GMT -0500)
Jennings

Weather History for K3R7 - August, 2014

Change the Weather History Date:

Sunday, August 17, 2014

  Actual Average (KLCH) Record (KLCH)
Temperature  
Mean Temperature 82 °F 83 °F  
Max Temperature 90 °F 92 °F 102 °F (1909)
Min Temperature 75 °F 74 °F 62 °F (1992)
Degree Days  
Heating Degree Days 0 0  
Month to date heating degree days 0  
Since 1 June heating degree days 0  
Since 1 July heating degree days 0  
Cooling Degree Days 18 18  
Month to date cooling degree days 306  
Year to date cooling degree days 1877  
Since 1 June cooling degree days 1339  
Growing Degree Days 32 (Base 50)    
Moisture  
Dew Point 76 °F    
Average Humidity 87    
Maximum Humidity 98    
Minimum Humidity 64    
Precipitation  
Precipitation 0.03 in 0.15 in 4.12 in (1915)
Month to date precipitation 2.68  
Year to date precipitation 36.04  
Snow  
Snow 0.00 in 0.00 in 0.00 in ()
Month to date snowfall 0.0  
Since 1 June snowfall 0.0  
Since 1 July snowfall 0.0  
Snow Depth -    
Sea Level Pressure  
Sea Level Pressure 30.00 in    
Wind  
Wind Speed 3 mph (SSW)    
Max Wind Speed 22 mph    
Max Gust Speed 31 mph    
Visibility 10 miles    
Events Rain , Thunderstorm    
T = Trace of Precipitation, MM = Missing Value Source: NWS Daily Summary

Daily Weather History Graph

Daily Weather History Graph

Search for Another Location

Airport or City:

Trip Planner

Search our weather history database for the weather conditions in past years. The results will help you decide how hot, cold, wet, or windy it might be!

Date:

Astronomy

Aug. 17, 2014 Rise Set
Actual Time 6:38 AM CDT 7:50 PM CDT
Civil Twilight 6:13 AM CDT 8:15 PM CDT
Nautical Twilight 5:43 AM CDT 8:44 PM CDT
Astronomical Twilight 5:13 AM CDT 9:15 PM CDT
Moon 12:06 AM CDT (8/17) 1:51 PM CDT (8/17)
Length of Visible Light 14h 01m
Length of Day
13h 11m
Waning Gibbous, 48% of the Moon is Illuminated
Aug 17
Waning Gibbous
Aug 25
New
Sep 2
First Quarter
Sep 8
Full
Sep 15
Last Quarter

Hourly Weather History & Observations

Time (CDT) Temp. Heat Index Dew Point Humidity Pressure Visibility Wind Dir Wind Speed Gust Speed Precip Events Conditions
12:15 AM 79.0 °F - 77.5 °F 95% 29.99 in 10.0 mi Calm Calm - N/A   Clear
12:35 AM 79.0 °F - 77.5 °F 95% 30.00 in 10.0 mi Calm Calm - N/A   Clear
12:55 AM 78.8 °F - 77.5 °F 96% 29.99 in 10.0 mi SSW 3.5 mph - N/A   Scattered Clouds
1:15 AM 79.0 °F - 77.4 °F 95% 29.99 in 10.0 mi SSW 3.5 mph - N/A   Clear
1:35 AM 78.8 °F - 77.2 °F 95% 29.99 in 10.0 mi SSW 3.5 mph - N/A   Clear
1:55 AM 78.4 °F - 77.2 °F 96% 29.99 in 10.0 mi Calm Calm - N/A   Clear
2:15 AM 78.1 °F - 77.0 °F 96% 29.99 in 10.0 mi Calm Calm - N/A   Clear
2:35 AM 77.5 °F - 77.0 °F 98% 29.99 in 10.0 mi Calm Calm - N/A   Scattered Clouds
2:55 AM 77.5 °F - 76.8 °F 98% 29.99 in 10.0 mi Calm Calm - N/A   Scattered Clouds
3:15 AM 77.5 °F - 76.6 °F 97% 29.99 in 10.0 mi Calm Calm - N/A   Scattered Clouds
3:35 AM 77.4 °F - 76.6 °F 98% 29.99 in 10.0 mi Calm Calm - N/A   Clear
3:55 AM 77.4 °F - 76.6 °F 98% 29.99 in 10.0 mi Calm Calm - N/A   Scattered Clouds
4:15 AM 77.9 °F - 77.0 °F 97% 29.99 in 10.0 mi Calm Calm - N/A   Scattered Clouds
4:35 AM 77.9 °F - 77.0 °F 97% 29.99 in 10.0 mi Calm Calm - N/A   Clear
4:55 AM 77.4 °F - 76.6 °F 98% 29.99 in 10.0 mi South 3.5 mph - N/A   Clear
5:15 AM 77.4 °F - 76.6 °F 98% 30.00 in 10.0 mi Calm Calm - N/A   Clear
5:35 AM 77.2 °F - 76.3 °F 97% 30.00 in 10.0 mi Calm Calm - N/A   Clear
5:55 AM 77.4 °F - 76.1 °F 96% 30.00 in 10.0 mi Calm Calm - N/A   Clear
6:15 AM 77.4 °F - 76.1 °F 96% 30.01 in 10.0 mi Calm Calm - N/A   Clear
6:35 AM 77.0 °F - 76.1 °F 97% 30.01 in 10.0 mi South 4.6 mph - N/A   Clear
6:55 AM 77.5 °F - 76.3 °F 96% 30.01 in 10.0 mi Calm Calm - N/A   Clear
7:15 AM 77.9 °F - 76.5 °F 95% 30.02 in 10.0 mi Calm Calm - N/A   Clear
7:35 AM 78.8 °F - 77.0 °F 94% 30.02 in 10.0 mi Calm Calm - N/A   Scattered Clouds
7:55 AM 79.9 °F - 77.2 °F 91% 30.02 in 10.0 mi SSW 4.6 mph - N/A   Scattered Clouds
8:15 AM 81.0 °F 87.9 °F 77.0 °F 88% 30.02 in 10.0 mi SW 3.5 mph - N/A   Scattered Clouds
8:35 AM 82.2 °F 91.3 °F 78.1 °F 87% 30.02 in 10.0 mi SSW 4.6 mph - N/A   Clear
8:55 AM 83.3 °F 93.8 °F 78.4 °F 85% 30.03 in 10.0 mi SW 5.8 mph - N/A   Clear
9:15 AM 84.6 °F 96.8 °F 78.8 °F 83% 30.03 in 10.0 mi SSW 9.2 mph - N/A   Clear
9:35 AM 86.2 °F 99.8 °F 79.2 °F 79% 30.03 in 10.0 mi SW 10.4 mph - N/A   Clear
9:55 AM 87.1 °F 99.8 °F 78.1 °F 74% 30.03 in 10.0 mi SSW 9.2 mph - N/A   Scattered Clouds
10:15 AM 87.8 °F 99.7 °F 77.0 °F 70% 30.03 in 10.0 mi SW 8.1 mph 17.3 mph N/A   Mostly Cloudy
10:35 AM 87.8 °F 99.7 °F 76.8 °F 70% 30.03 in 10.0 mi WSW 8.1 mph - N/A   Scattered Clouds
10:55 AM 89.1 °F 101.9 °F 77.4 °F 68% 30.03 in 10.0 mi SW 9.2 mph - N/A   Mostly Cloudy
11:15 AM 89.4 °F 101.7 °F 76.6 °F 66% 30.03 in 10.0 mi SW 9.2 mph 17.3 mph N/A   Mostly Cloudy
11:35 AM 90.5 °F 104.0 °F 77.4 °F 65% 30.02 in 10.0 mi WSW 9.2 mph 16.1 mph N/A   Mostly Cloudy
11:55 AM 90.5 °F 103.4 °F 77.0 °F 64% 30.02 in 10.0 mi SW 10.4 mph 18.4 mph N/A   Scattered Clouds
12:15 PM 86.9 °F 97.8 °F 76.3 °F 71% 30.02 in 10.0 mi SW 9.2 mph 16.1 mph N/A   Mostly Cloudy
12:35 PM 86.4 °F 95.5 °F 75.0 °F 69% 30.02 in 10.0 mi SW 9.2 mph - N/A Thunderstorm Thunderstorm
12:55 PM 86.9 °F 96.4 °F 75.0 °F 68% 30.02 in 10.0 mi SW 8.1 mph - N/A   Clear
1:15 PM 87.1 °F 97.8 °F 76.3 °F 70% 30.01 in 10.0 mi WSW 10.4 mph - N/A Thunderstorm Clear
1:35 PM 87.3 °F 97.7 °F 76.1 °F 69% 30.00 in 10.0 mi WSW 6.9 mph - N/A Thunderstorm Clear
1:55 PM 87.1 °F 97.3 °F 75.7 °F 69% 30.00 in 10.0 mi SW 6.9 mph - N/A Thunderstorm Clear
2:15 PM 87.3 °F 97.7 °F 76.1 °F 69% 30.00 in 10.0 mi SW 9.2 mph - N/A Thunderstorm Thunderstorm
2:35 PM 87.4 °F 97.7 °F 75.9 °F 68% 30.02 in 10.0 mi WSW 8.1 mph - N/A Thunderstorm Thunderstorm
2:55 PM 78.3 °F - 69.8 °F 75% 30.03 in 10.0 mi West 21.9 mph 31.1 mph N/A Thunderstorm Thunderstorm
3:15 PM 75.9 °F - 70.3 °F 83% 30.01 in 7.0 mi WSW 5.8 mph - 0.03 in Rain , Thunderstorm Light Thunderstorms and Rain
3:35 PM 75.9 °F - 72.3 °F 89% 30.01 in 10.0 mi Calm Calm - 0.03 in Rain , Thunderstorm Light Thunderstorms and Rain
3:55 PM 77.2 °F - 72.9 °F 86% 30.00 in 10.0 mi Calm Calm - 0.03 in   Clear
4:15 PM 77.5 °F - 73.8 °F 88% 30.01 in 10.0 mi East 6.9 mph - N/A   Clear
4:35 PM 77.9 °F - 73.9 °F 88% 30.00 in 10.0 mi SSE 3.5 mph - N/A   Clear
5:15 PM 79.2 °F - 74.3 °F 85% 29.99 in 10.0 mi SSE 3.5 mph - N/A   Clear
5:35 PM 80.1 °F 84.8 °F 74.5 °F 83% 29.99 in 10.0 mi SE 4.6 mph - N/A   Clear
5:55 PM 80.2 °F 85.7 °F 75.7 °F 86% 29.99 in 10.0 mi SE 3.5 mph - N/A   Clear
6:15 PM 80.6 °F 86.8 °F 76.3 °F 87% 29.99 in 10.0 mi SE 4.6 mph - N/A   Clear
6:35 PM 79.5 °F - 75.4 °F 87% 29.99 in 10.0 mi SSE 4.6 mph - N/A   Clear
6:55 PM 79.3 °F - 74.3 °F 84% 29.98 in 10.0 mi SE 5.8 mph - N/A   Clear
7:15 PM 79.0 °F - 73.9 °F 84% 29.97 in 10.0 mi SE 4.6 mph - N/A   Clear
7:35 PM 79.0 °F - 74.3 °F 85% 29.97 in 10.0 mi SSE 5.8 mph - N/A   Clear
7:55 PM 78.6 °F - 74.8 °F 88% 29.97 in 10.0 mi SSE 3.5 mph - N/A   Clear
8:15 PM 78.3 °F - 75.2 °F 90% 29.99 in 10.0 mi Calm Calm - N/A   Clear
8:35 PM 78.6 °F - 75.6 °F 90% 29.99 in 10.0 mi Calm Calm - N/A   Clear
8:55 PM 78.3 °F - 76.3 °F 94% 29.99 in 10.0 mi SSE 3.5 mph - N/A   Clear
9:15 PM 78.3 °F - 76.6 °F 95% 30.00 in 10.0 mi Calm Calm - N/A   Clear
9:35 PM 78.4 °F - 77.0 °F 95% 30.00 in 10.0 mi South 3.5 mph - N/A   Clear
9:55 PM 78.8 °F - 77.2 °F 95% 30.00 in 10.0 mi South 3.5 mph - N/A   Clear
10:15 PM 78.6 °F - 77.4 °F 96% 30.00 in 10.0 mi South 3.5 mph - N/A   Clear
10:35 PM 78.1 °F - 77.2 °F 97% 30.00 in 10.0 mi Calm Calm - N/A   Clear
10:55 PM 78.3 °F - 77.4 °F 97% 29.99 in 10.0 mi South 4.6 mph - N/A   Clear
11:15 PM 79.0 °F - 77.9 °F 96% 30.00 in 10.0 mi South 3.5 mph - N/A   Clear
11:35 PM 79.3 °F - 77.9 °F 95% 29.99 in 10.0 mi South 5.8 mph - N/A   Clear
11:55 PM 79.3 °F - 77.9 °F 95% 29.99 in 10.0 mi South 6.9 mph - N/A   Clear